Вернуться в каталог

CZ-2C DEB

АктивенSSO
NORAD 37767·DEBRIS·🇨🇳 China

Запущен Jul 29, 2011 с Jiuquan Satellite Launch Center

Loading…

Ближайшие Пролёты (ближайшие 24 часа)

TLE

СвежийSource: Space-Track

Эпоха: Sep 14, 2026, 10:54 UTC

1 37767U 11039C   26257.45471350  .00002322  00000-0  61394-3 0  9990
2 37767  97.9151 324.2771 0121830 163.8884 196.6238 14.45372643790047

Отслеживайте CZ-2C DEB в реальном времени с AllMySat

Download on the App Store